Location: Drummondville
(45.8830°N, 72.4830°W)
Time: 13:31:06
(UTC-05:00)

Vanguard 1 - All Passes

Search period start: 23 November 2017 00:00
Search period end: 03 December 2017 00:00
Orbit: 650 x 3834 km, 34.2° (Epoch: 22 November)

Date Brightness Start Highest point End Pass type
(mag) Time Alt. Az. Time Alt. Az. Time Alt. Az.
23 Nov - 15:26:20 10° SW 15:30:20 19° S 15:33:36 10° SE daylight
23 Nov - 17:46:20 10° SW 17:49:36 19° S 17:52:51 10° SE visible
24 Nov - 13:28:00 10° S 13:31:21 13° SSE 13:34:07 10° SE daylight
24 Nov - 15:46:51 10° SW 15:51:08 21° S 15:54:37 10° SE daylight
24 Nov - 18:07:23 10° SW 18:10:20 17° SSW 18:13:19 10° SSE visible
25 Nov - 13:47:26 10° SSW 13:52:15 17° SSE 13:55:56 10° SE daylight
25 Nov - 16:07:35 10° SW 16:11:55 22° S 16:15:28 10° SE daylight
25 Nov - 18:28:42 10° SW 18:31:04 14° SSW 18:33:27 10° SSE visible
26 Nov - 11:51:16 10° SSE 11:52:41 10° SSE 11:54:00 10° SSE daylight
26 Nov - 14:07:31 10° SW 14:13:08 21° S 14:17:13 10° ESE daylight
26 Nov - 16:28:27 10° WSW 16:32:40 22° S 16:36:11 10° SE daylight
26 Nov - 18:50:51 10° SSW 18:51:46 11° SSW 18:52:40 10° S visible
27 Nov - 12:08:29 10° S 12:13:40 15° SSE 12:17:43 10° SE daylight
27 Nov - 14:27:59 10° SW 14:34:00 24° S 14:38:16 10° ESE daylight
27 Nov - 16:49:27 10° WSW 16:53:23 21° SSW 16:56:44 10° SE visible
28 Nov - 12:27:45 10° SSW 12:34:39 19° SSE 12:39:34 10° ESE daylight
28 Nov - 14:48:41 10° SW 14:54:49 27° S 14:59:09 10° ESE daylight
28 Nov - 17:10:38 10° WSW 17:14:05 18° SSW 17:17:07 10° SSE visible
29 Nov - 10:31:05 10° SSE 10:34:30 11° SSE 10:37:29 10° SE daylight
29 Nov - 12:47:43 10° SW 12:55:37 24° SSE 13:00:54 10° ESE daylight
29 Nov - 15:09:34 10° WSW 15:15:38 27° S 15:19:55 10° SE daylight
29 Nov - 17:32:05 10° SW 17:34:44 14° SSW 17:37:08 10° S visible
30 Nov - 10:48:21 10° S 10:55:33 16° SSE 11:00:58 10° ESE daylight
30 Nov - 13:08:06 10° SW 13:16:33 28° S 13:21:59 10° ESE daylight
30 Nov - 15:30:35 10° WSW 15:36:24 27° S 15:40:34 10° SE daylight
30 Nov - 17:54:36 10° SW 17:55:19 10° SSW 17:56:01 10° SSW visible
01 Dec - 11:07:20 10° SSW 11:16:36 21° SSE 11:22:57 10° ESE daylight
01 Dec - 13:28:46 10° SW 13:37:27 31° S 13:42:55 10° ESE daylight
01 Dec - 15:51:43 10° WSW 15:57:06 24° SSW 16:01:05 10° SE daylight
02 Dec - 09:11:27 10° SSE 09:15:48 12° SSE 09:19:36 10° SE daylight
02 Dec - 11:27:05 10° SSW 11:37:37 26° SSE 11:44:23 10° ESE daylight
02 Dec - 13:49:38 10° WSW 13:58:19 33° S 14:03:43 10° ESE daylight
02 Dec - 16:12:59 10° WSW 16:17:45 21° SSW 16:21:25 10° SSE daylight
